Home   Weather   Qadian   Past weeks

Flag for India Past Weather in Qadian, Punjab, India — Yesterday and Last 2 Weeks

Now
88 °F

Fog.


Feels Like: 120 °F
Forecast: 80 / 92 °F
Wind: No wind

Location: Amritsar Airport

Current Time: Jul 25, 2017 at 10:34:31 pm

Latest Report: Jul 25, 2017 at 9:30 pm


Visibility: 3 mi

Pressure: 29.50 "Hg

Humidity: 100%

Dew Point: 88 °F

Location of QadianLocation

Past Weather in Qadian — Graph

°F

Qadian Temperature Yesterday

Maximum temperature yesterday: 90 °F (at 1:00 pm)
Minimum temperature yesterday: 82 °F (at 1:30 am)
Average temperature yesterday: 86 °F

High & Low Weather Summary for the Past Weeks

 TemperatureHumidityPressure
High95 °F (Jul 14, 2:00 pm)100% (Jul 11, 4:30 am)29.68 "Hg (Jul 11, 4:30 am)
Low73 °F (Jul 11, 8:00 pm)60% (Jul 19, 5:00 pm)29.42 "Hg (Jul 19, 5:00 pm)
Average86 °F94%29.54 "Hg
* Reported Jul 10 8:30 pm — Jul 25 9:00 pm, Qadian. Weather by CustomWeather, © 2017

Note: Actual official high and low records may vary slightly from our data, if they occured in-between our weather recording intervals... More about our weather records

Advertising

Qadian Weather History for the Previous 24 Hours

Scroll right to see more
 ConditionsComfort  
Time TempWeatherWind HumidityBarometerVisibility
9:00 pm
Tue, Jul 25
88 °FFog.No wind100%29.50 "Hg3 mi
8:30 pm88 °FFog.No wind94%29.47 "Hg3 mi
8:00 pm90 °FFog.No wind89%29.47 "Hg3 mi
7:30 pm90 °FScattered clouds.7 mph84%29.45 "Hg4 mi
7:00 pm91 °FScattered clouds.7 mph80%29.45 "Hg4 mi
6:30 pm91 °FScattered clouds.8 mph80%29.45 "Hg4 mi
6:00 pm91 °FScattered clouds.8 mph80%29.45 "Hg4 mi
5:30 pm93 °FScattered clouds.8 mph75%29.45 "Hg4 mi
5:00 pm93 °FScattered clouds.7 mph75%29.45 "Hg4 mi
4:30 pm93 °FScattered clouds.8 mph80%29.45 "Hg4 mi
4:00 pm93 °FScattered clouds.5 mph80%29.45 "Hg4 mi
3:30 pm93 °FScattered clouds.6 mph80%29.47 "Hg4 mi
2:00 pm91 °FScattered clouds.5 mph80%29.50 "Hg4 mi
1:00 pm91 °FScattered clouds.6 mph84%29.50 "Hg4 mi
11:30 am91 °FScattered clouds.7 mph89%29.50 "Hg4 mi
11:00 am91 °FScattered clouds.3 mph89%29.50 "Hg4 mi
10:30 am90 °FPassing clouds.2 mph94%29.50 "Hg4 mi
10:00 am88 °FPassing clouds.2 mph94%29.50 "Hg4 mi
9:30 am88 °FPassing clouds.5 mph100%29.50 "Hg4 mi
8:30 am84 °FFog.5 mph100%29.50 "Hg3 mi
8:00 am84 °FFog.No wind100%29.50 "Hg3 mi
7:30 am82 °FFog.2 mph100%29.50 "Hg2 mi
7:00 am82 °FFog.2 mph100%29.50 "Hg2 mi
6:30 am82 °FFog.No wind100%29.50 "Hg2 mi
6:00 am82 °FFog.No wind100%29.50 "Hg2 mi
4:00 am82 °FFog.No wind100%29.47 "Hg2 mi
3:00 am84 °FFog.6 mph100%29.47 "Hg2 mi
2:30 am84 °FFog.2 mph100%29.47 "Hg2 mi
2:00 am84 °FFog.No wind100%29.50 "Hg2 mi
1:00 am86 °FFog.No wind100%29.50 "Hg2 mi
12:30 am84 °FFog.2 mph100%29.50 "Hg2 mi
12:00 am84 °FFog.2 mph100%29.50 "Hg2 mi
11:30 pm
Mon, Jul 24
86 °FFog.2 mph100%29.50 "Hg2 mi
11:00 pm86 °FFog.5 mph100%29.50 "Hg2 mi
10:30 pm86 °FFog.3 mph100%29.47 "Hg2 mi
10:00 pm86 °FFog.2 mph100%29.47 "Hg3 mi
Weather by CustomWeather, © 2017

See weather overviewHow to use our weather pages